Location: Duistervoorde
(52.2315°N, 6.0870°E)
Time: 15:47:04
(UTC+00:00)

Daily predictions for brighter satellites

Satellite Brightness Start Highest point End
(mag) Time Altitude Azimuth Time Altitude Azimuth Time Altitude Azimuth
Cosmos 1980 Rocket 2.5 19:44:58 10° NNW 19:50:38 58° NE 19:56:14 10° SE
SL-08 R/B 3.7 19:46:17 10° NNE 19:50:59 45° E 19:55:34 10° S
Okean 1 Rocket 3.3 19:50:05 10° S 19:54:20 52° E 19:58:39 10° NNE
Meteor 2-3 Rocket 3.8 19:50:30 10° NNW 19:56:10 88° ENE 20:01:49 10° SSE
Cosmos 2084 3.4 19:53:50 10° SW 19:57:59 87° NW 20:02:09 10° NE
SPOT 3 Rocket 4.3 19:54:34 10° SE 19:59:18 38° ENE 20:04:02 10° N
CZ-4 R/B 2.7 19:56:57 10° SSW 20:00:19 35° W 20:03:42 10° NNW
Cosmos 1850 Rocket 4.0 19:55:27 10° NNW 20:00:38 74° ENE 20:05:48 10° SSE
CZ-4B R/B 3.8 19:58:47 10° ESE 20:01:36 25° ENE 20:04:28 10° N
Cosmos 1782 3.9 19:59:34 10° SE 20:02:17 21° E 20:05:01 10° NE
ASTEX 1 4.2 20:01:51 10° S 20:06:42 55° W 20:11:36 10° NNW
Cosmos 2084 Rocket 4.2 20:06:10 10° NW 20:10:11 44° NNE 20:14:15 10° ESE
CZ-4B R/B 3.7 20:04:38 10° S 20:10:16 67° WSW 20:15:55 10° NNW
Cosmos 2056 Rocket 3.9 20:04:53 10° SSW 20:10:17 72° WNW 20:15:41 10° NNE
Cosmos 1833 Rocket 2.7 20:05:40 10° SSW 20:11:17 88° ESE 20:16:57 10° NNE
Cosmos 1110 Rocket 4.1 20:06:32 10° S 20:11:42 57° ESE 20:16:54 10° NNE
Cosmos 1802 Rocket 4.1 20:06:07 10° S 20:12:08 56° E 20:18:08 10° NNE
Cosmos 1624 Rocket 4.4 20:08:04 10° SSW 20:13:14 70° WNW 20:18:26 10° NNE
Terra 2.5 20:09:54 10° S 20:14:29 53° W 20:19:07 10° NNW
Gbstr 26 Del rocket 3.4 20:09:37 10° W 20:14:50 61° SSW 20:18:53 11° ESE
Cosmos 2360 Rocket 4.1 20:11:50 10° NNW 20:16:03 21° NNE 20:20:15 10° E
Sich 1 Rocket 3.5 20:12:49 10° S 20:17:09 76° E 20:21:33 10° NNE
SJ 16-02 4.1 20:17:35 10° WNW 20:19:19 12° W 20:21:02 10° WSW
YAOGAN 11 4.3 20:16:20 10° NNE 20:20:39 55° ESE 20:25:01 10° S
CZ-2C R/B 3.5 20:23:39 13° ESE 20:25:23 22° ENE 20:27:40 10° NNE
Cosmos 1743 2.0 20:22:53 10° N 20:25:55 74° E 20:28:34 13° SSE
Meteor 1-27 4.3 20:26:05 10° S 20:31:38 60° E 20:37:09 10° NNE
Cosmos 44 Rocket 3.6 20:27:00 10° SSW 20:31:52 48° ESE 20:36:51 10° NE
ISS -2.4 20:30:10 10° SSW 20:32:41 20° SE 20:35:05 11° E
Cosmos 1459 Rocket 4.1 20:26:54 10° S 20:33:10 84° W 20:39:22 10° N
Cosmos 2219 Rocket 4.3 20:29:32 10° NNW 20:33:31 19° NNE 20:37:31 10° ENE
Meteor 2-12 Rocket 4.5 20:28:57 10° N 20:35:03 73° ENE 20:40:49 12° SSE
Ariane Rocket 3.2 20:32:21 13° SE 20:36:41 57° ENE 20:41:39 10° N
Cosmos 2100 Rocket 4.3 20:30:32 10° SSW 20:36:45 74° WNW 20:43:05 10° N
ATLAS 2AS CENTAUR R/B 3.2 20:33:44 10° WSW 20:40:37 66° NW 20:47:26 10° NE
Cosmos 2369 3.8 20:36:00 10° NNW 20:41:45 72° ENE 20:46:24 16° SE
SL-4 R/B 3.8 20:39:46 10° W 20:42:22 17° SW 20:44:44 11° S
BREEZE-M DEB (TANK) 4.4 20:39:33 10° W 20:42:28 30° SSW 20:47:10 15° SE
Spot 2 Rocket 4.0 20:37:48 10° S 20:42:43 57° W 20:47:41 10° NNW
Cosmos 2322 Rocket 3.7 20:39:08 10° NNW 20:43:57 28° NE 20:48:47 10° E
Cosmos 2082 Rocket 2.6 20:42:06 10° S 20:47:25 42° ESE 20:52:45 10° NE
Okean 2 Rocket 4.2 20:43:13 10° SSW 20:47:32 46° WNW 20:51:54 10° N
USA 305 2.5 20:44:26 10° WNW 20:48:33 81° SSW 20:51:08 19° ESE
Cosmos 1437 Rocket 4.2 20:47:59 15° ESE 20:48:56 17° E 20:51:18 10° NE
Cosmos 2151 3.8 20:46:36 10° N 20:50:26 35° ENE 20:52:53 19° SE
Cosmos 1626 Rocket 3.7 20:52:57 10° N 20:57:14 57° ENE 21:00:04 20° SSE
Cosmos 2233 Rocket 4.0 20:52:03 10° S 20:58:16 77° E 21:04:26 10° NNE
Cosmos 1607 4.1 20:52:28 10° SSW 20:58:22 50° ESE 21:04:23 10° NE
Cosmos 2228 2.8 20:55:35 12° S 20:59:28 77° E 21:03:35 10° NNE
USA 186 3.4 20:58:35 10° SSW 21:00:47 23° W 21:03:04 10° NW
Timation 1 Rocket 4.5 20:55:46 10° SW 21:01:48 80° WNW 21:07:51 10° NNE
Okean O Rocket 2.9 20:58:07 10° SSW 21:02:04 36° W 21:06:04 10° NNW
Tsikada Rocket 4.0 20:57:12 10° NNW 21:03:25 81° W 21:08:51 14° S
CZ-4C R/B 1.8 21:04:44 10° SW 21:09:03 87° SE 21:14:43 10° NE
Cosmos 1725 Rocket 4.3 21:03:10 10° SSW 21:09:24 68° WNW 21:15:40 10° N
Cosmos 1992 Rocket 4.4 21:05:58 17° S 21:09:37 43° ESE 21:14:31 10° NE
Cosmos 1452 Rocket 3.6 21:04:48 10° SSW 21:10:02 78° WNW 21:15:18 10° NNE
Meteor 1-20 Rocket 4.3 21:04:34 10° N 21:10:05 65° ENE 21:13:53 21° SSE
COSMOS 2406 4.0 21:07:29 19° SSE 21:10:37 32° ESE 21:15:39 10° NE
SL-16 R/B 2.6 21:05:23 10° NNW 21:10:59 56° NE 21:14:58 19° SE
Helios 1A 4.3 21:09:15 10° NE 21:12:13 20° E 21:13:02 19° ESE
ATLAS 3B R/B 4.0 21:07:55 10° NW 21:14:42 34° WSW 21:20:47 11° S
Okean-O 4.3 21:11:15 10° SSW 21:15:04 29° W 21:18:54 10° NNW
Cosmos 1805 4.1 21:14:09 10° N 21:17:02 27° ENE 21:18:02 23° ESE
CZ-4B R/B 3.8 21:19:07 17° S 21:22:38 57° WSW 21:27:23 10° NNW
Cosmos 2333 Rocket 2.5 21:18:15 10° NNW 21:23:54 61° NE 21:27:39 22° SE
Cosmos 1455 Rocket 4.3 21:21:46 10° SW 21:25:57 41° WNW 21:30:09 10° N
Cosmos 1302 Rocket 4.0 21:22:32 10° SSW 21:27:43 87° WNW 21:32:56 10° NNE
Cosmos 2098 Rocket 4.0 21:25:32 24° SE 21:27:50 37° E 21:32:05 10° NNE
Meteor 1-25 Rocket 4.3 21:23:24 10° N 21:29:08 70° ENE 21:32:32 25° SSE
Cosmos 1980 Rocket 3.5 21:29:23 10° NW 21:34:20 31° WSW 21:38:33 13° SSW
CZ-4B R/B 4.2 21:33:11 15° SSW 21:35:19 26° W 21:38:15 10° NW
Cosmos 2061 Rocket 4.2 21:30:04 10° SSW 21:36:16 72° WNW 21:42:33 10° N
Cosmos 1782 4.1 21:33:32 10° SW 21:36:43 32° WNW 21:39:57 10° N
Cosmos 1544 Rocket 3.4 21:35:33 24° S 21:38:10 84° E 21:42:31 10° NNE
Cosmos 724 4.4 21:32:59 10° SW 21:39:02 84° NW 21:44:59 10° NE
NOSS 3-3 (A) 3.7 21:34:46 10° SSW 21:39:53 59° SE 21:46:02 10° NE
DNEPR-1 R/B 4.4 21:39:55 10° NW 21:45:07 69° NE 21:49:21 21° ESE
Cosmos 1933 3.1 21:44:19 34° S 21:45:50 76° E 21:49:39 10° NNE
Cosmos 2084 Rocket 4.2 21:44:58 10° WNW 21:48:54 39° SW 21:50:19 29° S
Okean 1 4.1 21:49:59 28° E 21:50:18 28° E 21:53:25 10° NNE
Cosmos 1758 Rocket 4.2 21:47:02 10° NNW 21:51:16 49° W 21:53:41 23° SSW
Helios 1B rocket 2.4 21:51:51 38° ESE 21:52:48 50° ENE 21:56:13 10° N
CZ-2C R/B 4.0 21:55:17 18° WSW 21:56:09 20° W 21:58:20 10° NW
Cosmos 1464 Rocket 4.0 21:53:23 27° SSE 21:56:50 65° E 22:02:56 10° NNE
Cosmos 1513 Rocket 4.5 21:56:21 21° S 22:00:45 88° W 22:06:58 10° N
Cosmos 2360 Rocket 2.4 21:55:26 10° NNW 22:01:07 67° NE 22:04:14 27° SE
Meteor 2-10 4.2 21:58:19 10° NNW 22:04:03 83° ENE 22:06:57 31° SSE
Cosmos 1825 Rocket 3.5 22:03:21 10° N 22:07:42 78° E 22:09:11 40° SSE
NOSS 3-3 (C) 3.7 22:02:52 12° SSW 22:07:45 73° SE 22:14:10 10° NE
ALOS 2 3.6 22:06:32 25° ESE 22:08:20 36° ENE 22:12:21 10° N
Geosat 3.9 22:03:19 10° NNE 22:08:22 88° NW 22:12:24 16° SW
ARIANE 5 R/B 3.3 22:07:11 29° ESE 22:08:55 43° ENE 22:13:09 10° N
ISS -3.3 22:05:45 10° WSW 22:08:15 43° SW 22:08:15 43° SW
Cosmos 1953 Rocket 4.0 22:05:04 10° N 22:09:21 50° ENE 22:10:47 35° SE
Cosmos 1072 Rocket 4.5 22:08:18 26° S 22:12:05 86° E 22:18:27 10° N
Cosmos 2058 Rocket 4.3 22:11:46 25° ESE 22:12:35 26° E 22:16:13 10° NNE
USA 305 3.9 22:10:15 10° W 22:13:09 24° SW 22:13:09 24° SW
BREEZE-M R/B 4.2 22:07:28 10° W 22:16:10 80° S 22:21:50 10° E
Cosmos 1602 Rocket 4.2 22:12:48 10° NNW 22:16:55 46° W 22:18:42 29° SSW
Cosmos 1092 Rocket 4.2 22:11:43 10° N 22:17:47 58° ENE 22:20:51 29° SE
Cosmos 2219 Rocket 2.5 22:13:03 10° NNW 22:18:40 60° NE 22:21:48 26° SE
CZ-2C R/B 4.2 22:14:58 10° NNE 22:19:09 40° E 22:20:05 36° SE
DEBRIS 4.2 22:15:21 10° W 22:19:29 73° S 22:35:15 10° E
NOSS 3-4 (A) 3.7 22:14:47 10° NW 22:21:22 85° SW 22:26:01 26° SE
NOSS 3-4 (C) 3.7 22:15:23 10° NW 22:21:59 86° SW 22:26:40 26° SE
Cosmos 1437 Rocket 3.5 22:21:47 26° SW 22:23:18 42° WNW 22:26:44 10° N
Cosmos 540 Rocket 4.3 22:23:21 30° SE 22:24:25 33° ESE 22:28:59 10° NE
Cosmos 1461 3.0 22:26:32 43° ESE 22:26:32 43° ESE 22:29:42 10° NE
Cosmos 2322 Rocket 2.2 22:22:56 10° NNW 22:28:37 79° WSW 22:31:03 36° SSE
Cosmos 2034 Rocket 4.0 22:27:37 31° S 22:30:52 76° E 22:37:14 10° NNE
Cosmos 2082 Rocket 3.2 22:26:00 10° WSW 22:31:29 45° NW 22:36:59 10° NNE
ATLAS 2AS CENTAUR R/B 4.4 22:26:29 10° WNW 22:32:40 34° NNW 22:38:48 10° NE
Cosmos 220 Rocket 3.7 22:32:36 48° SSW 22:33:41 84° ESE 22:37:48 10° NNE
Cosmos 1536 3.0 22:33:59 10° N 22:37:34 48° ENE 22:38:06 44° ESE
Cosmos 1707 3.3 22:38:21 31° ENE 22:38:21 31° ENE 22:40:20 10° NNE
USA 234 3.3 22:32:10 10° ENE 22:38:34 52° SE 22:42:48 22° SSW
ACS3 Solar Sail 3.9 22:38:58 10° ENE 22:41:02 12° ENE 22:43:05 10° E
COSMOS 2428 3.9 22:36:45 10° NNW 22:42:04 37° NE 22:46:33 14° ESE
Cosmos 2237 Rocket 4.2 22:40:39 10° NNW 22:45:12 24° NE 22:49:43 10° E
Okean 1-7 Rocket 4.5 22:41:28 10° NNW 22:45:37 40° W 22:47:08 30° SW
Helios 1A 3.6 22:43:21 10° N 22:47:08 46° WNW 22:48:44 29° SW
Cosmos 1763 Rocket 3.7 22:45:39 40° SSE 22:47:13 55° ESE 22:52:23 10° NNE
Cosmos 1503 Rocket 4.0 22:42:06 10° NNW 22:47:17 68° WSW 22:49:02 41° S
Cosmos 1777 Rocket 4.3 22:42:24 10° NNW 22:47:32 54° WSW 22:49:16 37° SSW
Cosmos 2278 4.3 22:42:09 10° NW 22:47:35 45° WSW 22:49:38 32° SSW
Cosmos-2242 3.0 22:47:28 52° SE 22:48:12 64° E 22:52:18 10° NNE
CZ-2C R/B 4.2 22:44:56 10° NNE 22:50:04 34° E 22:51:56 28° SE
Cosmos 990 Rocket 3.9 22:45:30 10° NNW 22:50:41 86° WSW 22:52:30 42° SSE
Cosmos 1606 Rocket 4.2 22:52:44 31° SW 22:54:29 50° WNW 22:58:44 10° N
ARGOS Delta rocket 4.2 22:49:36 10° NNE 22:54:32 58° E 22:56:07 40° SSE
COSMOS 2406 3.8 22:49:26 12° SW 22:54:39 57° NW 23:00:20 10° NNE
SL-16 R/B 3.3 22:49:51 10° NW 22:54:49 32° WSW 22:56:47 26° SW
USA 290 2.6 22:56:48 53° ENE 22:56:48 53° ENE 22:59:26 10° NNE
Cosmos 1354 Rocket 3.9 22:52:16 10° NNW 22:57:32 79° WSW 22:59:19 42° S
CZ-4C R/B 3.8 22:53:29 10° W 22:57:58 34° NNW 23:03:39 10° NE
Cosmos 1634 Rocket 4.0 22:57:50 36° S 23:00:28 73° E 23:06:39 10° NNE
Cosmos 1766 2.8 22:58:11 10° NNW 23:01:17 68° WNW 23:01:17 68° WNW
Cosmos 1470 2.9 23:00:54 10° N 23:04:07 45° ENE 23:04:12 44° E
Cosmos 2279 Rocket 4.3 23:01:48 34° SSE 23:04:22 57° E 23:10:29 10° NNE
SeaSat 1 2.9 23:03:53 26° ESE 23:06:30 56° NE 23:11:18 10° NNW
Cosmos 1726 Rocket 4.1 23:06:20 35° WSW 23:07:35 47° WNW 23:11:31 10° N
Cosmos 2333 Rocket 3.4 23:03:01 10° NW 23:07:52 29° WSW 23:09:39 25° SW
Cosmos 2221 3.3 23:09:57 33° ESE 23:10:32 35° E 23:14:21 10° NNE
Meteor 2-2 Rocket 4.2 23:10:21 39° S 23:12:36 88° ESE 23:18:23 10° NNE
Cosmos 1842 3.3 23:13:51 47° ENE 23:13:51 47° ENE 23:16:34 10° NNE
BREEZE-M DEB (TANK) 3.5 23:10:13 10° W 23:17:43 58° S 23:22:38 10° ESE
CZ-2C R/B 2.9 23:16:22 33° SE 23:18:41 62° ENE 23:23:51 10° N
Cosmos 1833 4.1 23:17:41 38° SSW 23:19:55 78° ESE 23:25:34 10° NNE
NOSS 0 Rocket 4.5 23:17:19 10° NNW 23:23:26 56° NE 23:28:04 17° SE
Spot 4 4.5 23:23:21 36° SW 23:24:36 43° W 23:29:10 10° NNW
KORONAS-FOTON 3.4 23:25:14 79° W 23:25:14 79° W 23:28:39 10° N
Helios 1B rocket 4.2 23:25:48 15° W 23:26:04 15° W 23:28:14 10° NW
SAR-Lupe-2 4.0 23:26:37 43° W 23:26:37 43° W 23:29:39 10° NNW
Cosmos 1975 2.6 23:24:15 10° N 23:27:57 70° E 23:28:17 64° ESE
Aureole 1 Rocket 3.7 23:24:27 10° NNW 23:29:40 71° WSW 23:32:03 38° S
Cosmos 2266 Rocket 4.1 23:25:36 10° N 23:31:37 65° ENE 23:34:28 32° SSE
Cosmos 2322 3.8 23:26:42 10° NNW 23:32:27 78° ENE 23:35:16 31° SE
Cosmos 1812 Rocket 4.1 23:34:01 41° SE 23:34:55 47° E 23:39:09 10° NNE
Cosmos 2297 Rocket 3.8 23:33:58 17° ESE 23:35:34 19° E 23:39:28 10° NE
Cosmos 44 3.4 23:30:33 10° NW 23:36:00 82° SW 23:38:07 38° SSE
Cosmos 1271 Rocket 2.3 23:38:07 79° E 23:38:07 79° E 23:41:30 10° NNE
Cosmos 372 Rocket 3.9 23:36:55 10° NNW 23:42:03 72° WSW 23:43:34 45° S
RESURS DK-1 2.5 23:39:06 10° NNW 23:43:05 64° NE 23:44:13 42° ESE
Cosmos 1937 Rocket 3.6 23:38:12 10° NNW 23:43:23 71° ENE 23:45:41 33° SE
Cosmos 2360 Rocket 3.4 23:40:02 10° NW 23:44:39 26° WSW 23:45:58 24° SW
ALOS 2 3.6 23:43:55 29° WSW 23:44:42 32° W 23:48:39 10° NNW
ARIANE 5 R/B 3.9 23:44:33 25° WSW 23:45:23 26° W 23:49:10 10° NW
ISS-0.423:50:53E23:50:53E23:41:23W
Meteor 1-11 Rocket 3.7 23:41:20 10° NNW 23:47:07 79° ENE 23:49:32 36° SSE
GP-B 3.0 23:43:50 10° N 23:48:14 85° E 23:49:14 54° S
Cosmos 2058 Rocket 4.0 23:48:53 30° WSW 23:50:17 39° WNW 23:54:23 10° N
Cosmos 468 Rocket 3.9 23:51:08 41° SSW 23:53:02 89° WNW 23:58:21 10° NNE
